TimeEST,TemperatureF,Dew PointF,Humidity,Sea Level PressureIn,VisibilityMPH,Wind Direction,Wind SpeedMPH,Gust SpeedMPH,PrecipitationIn,Events,Conditions,WindDirDegrees,DateUTC
12:15 AM,26.6,24.8,93,30.16,7.0,Calm,Calm,-,N/A,,Clear,0,2012-11-08 05:15:00
12:35 AM,26.6,24.8,93,30.16,5.0,Calm,Calm,-,N/A,,Clear,0,2012-11-08 05:35:00
12:55 AM,26.6,25.2,94,30.16,5.0,Calm,Calm,-,N/A,,Clear,0,2012-11-08 05:55:00
1:15 AM,26.4,24.8,94,30.16,0.8,Calm,Calm,-,N/A,,Mist,0,2012-11-08 06:15:00
1:35 AM,25.7,24.1,94,30.16,5.0,Calm,Calm,-,N/A,,Clear,0,2012-11-08 06:35:00
1:55 AM,25.9,24.4,94,30.16,5.0,Calm,Calm,-,N/A,,Clear,0,2012-11-08 06:55:00
2:15 AM,25.0,23.4,94,30.16,5.0,Calm,Calm,-,N/A,,Clear,0,2012-11-08 07:15:00
2:35 AM,25.2,23.4,93,30.16,5.0,Calm,Calm,-,N/A,,Clear,0,2012-11-08 07:35:00
2:55 AM,25.0,23.5,94,30.16,4.0,Calm,Calm,-,N/A,,Clear,0,2012-11-08 07:55:00
3:15 AM,24.8,23.5,95,30.16,3.0,Calm,Calm,-,N/A,,Clear,0,2012-11-08 08:15:00
3:35 AM,24.6,23.0,94,30.16,4.0,Calm,Calm,-,N/A,,Clear,0,2012-11-08 08:35:00
3:54 AM,24.4,22.8,94,30.17,5.0,Calm,Calm,-,N/A,,Clear,0,2012-11-08 08:54:00
4:15 AM,24.1,22.6,94,30.16,5.0,Calm,Calm,-,N/A,,Clear,0,2012-11-08 09:15:00
4:35 AM,24.6,23.0,94,30.17,4.0,Calm,Calm,-,N/A,,Clear,0,2012-11-08 09:35:00
4:55 AM,24.1,22.5,94,30.17,5.0,Calm,Calm,-,N/A,,Clear,0,2012-11-08 09:55:00
5:15 AM,23.9,22.1,93,30.18,5.0,Calm,Calm,-,N/A,,Clear,0,2012-11-08 10:15:00
5:35 AM,23.2,21.6,94,30.18,4.0,Calm,Calm,-,N/A,,Clear,0,2012-11-08 10:35:00
6:15 AM,24.1,22.5,94,30.18,7.0,Calm,Calm,-,N/A,,Clear,0,2012-11-08 11:15:00
6:35 AM,23.4,21.9,94,30.18,4.0,Calm,Calm,-,N/A,,Scattered Clouds,0,2012-11-08 11:35:00
6:55 AM,23.5,22.1,94,30.18,4.0,Calm,Calm,-,N/A,,Mostly Cloudy,0,2012-11-08 11:55:00
7:15 AM,23.4,21.7,94,30.18,5.0,Calm,Calm,-,N/A,,Overcast,0,2012-11-08 12:15:00
7:54 AM,27.3,25.3,92,30.19,5.0,Calm,Calm,-,N/A,,Overcast,0,2012-11-08 12:54:00
8:15 AM,28.4,26.2,92,30.20,5.0,Calm,Calm,-,N/A,,Overcast,0,2012-11-08 13:15:00
8:35 AM,29.3,27.1,92,30.20,5.0,Calm,Calm,-,N/A,,Overcast,0,2012-11-08 13:35:00
8:55 AM,30.2,28.0,92,30.21,5.0,Calm,Calm,-,N/A,,Overcast,0,2012-11-08 13:55:00
9:15 AM,30.9,28.4,90,30.21,5.0,Calm,Calm,-,N/A,,Overcast,0,2012-11-08 14:15:00
9:35 AM,32.0,29.8,92,30.21,4.0,Calm,Calm,-,N/A,,Overcast,0,2012-11-08 14:35:00
9:55 AM,32.5,30.9,94,30.20,4.0,Calm,Calm,-,N/A,,Overcast,0,2012-11-08 14:55:00
10:15 AM,33.8,31.8,92,30.20,4.0,Calm,Calm,-,N/A,,Overcast,0,2012-11-08 15:15:00
10:35 AM,35.6,32.0,87,30.20,7.0,SSE,3.5,-,N/A,,Overcast,160,2012-11-08 15:35:00
10:55 AM,36.9,32.0,83,30.19,10.0,South,4.6,-,N/A,,Overcast,170,2012-11-08 15:55:00
11:35 AM,39.7,32.4,75,30.19,10.0,South,3.5,-,N/A,,Overcast,170,2012-11-08 16:35:00
11:55 AM,40.5,32.4,73,30.18,10.0,SSE,4.6,-,N/A,,Overcast,160,2012-11-08 16:55:00
12:15 PM,41.5,32.4,70,30.17,10.0,South,3.5,-,N/A,,Overcast,180,2012-11-08 17:15:00
12:35 PM,41.9,32.0,68,30.16,10.0,South,3.5,-,N/A,,Overcast,190,2012-11-08 17:35:00
12:55 PM,42.4,31.8,66,30.16,10.0,SSW,3.5,-,N/A,,Overcast,200,2012-11-08 17:55:00
1:15 PM,43.5,32.0,64,30.15,10.0,SSW,4.6,-,N/A,,Overcast,210,2012-11-08 18:15:00
1:35 PM,43.3,31.8,64,30.14,10.0,South,3.5,-,N/A,,Overcast,180,2012-11-08 18:35:00
1:55 PM,43.9,32.0,63,30.14,10.0,SSW,3.5,-,N/A,,Overcast,200,2012-11-08 18:55:00
2:15 PM,44.4,32.0,62,30.14,10.0,SSW,4.6,-,N/A,,Overcast,210,2012-11-08 19:15:00
2:35 PM,44.6,31.3,60,30.13,10.0,Calm,Calm,-,N/A,,Overcast,0,2012-11-08 19:35:00
2:55 PM,44.8,31.8,60,30.13,10.0,SSE,4.6,-,N/A,,Overcast,160,2012-11-08 19:55:00
3:14 PM,45.0,31.8,60,30.12,10.0,South,3.5,-,N/A,,Overcast,170,2012-11-08 20:14:00
3:35 PM,44.8,31.8,60,30.12,10.0,SSE,4.6,-,N/A,,Overcast,160,2012-11-08 20:35:00
3:55 PM,45.0,32.0,60,30.12,10.0,SSW,3.5,-,N/A,,Overcast,200,2012-11-08 20:55:00
4:15 PM,45.1,32.0,60,30.12,10.0,Calm,Calm,-,N/A,,Overcast,0,2012-11-08 21:15:00
4:35 PM,45.0,31.8,60,30.12,10.0,Calm,Calm,-,N/A,,Overcast,0,2012-11-08 21:35:00
4:55 PM,44.8,32.0,61,30.12,10.0,SW,3.5,-,N/A,,Overcast,230,2012-11-08 21:55:00
5:15 PM,44.6,32.0,61,30.12,10.0,Calm,Calm,-,N/A,,Overcast,0,2012-11-08 22:15:00
5:35 PM,44.1,32.0,63,30.12,10.0,Calm,Calm,-,N/A,,Overcast,0,2012-11-08 22:35:00
5:55 PM,43.7,32.0,63,30.11,10.0,Calm,Calm,-,N/A,,Overcast,0,2012-11-08 22:55:00
6:15 PM,43.9,32.0,63,30.11,10.0,Calm,Calm,-,N/A,,Overcast,0,2012-11-08 23:15:00
6:35 PM,44.1,32.2,63,30.11,10.0,Calm,Calm,-,N/A,,Overcast,0,2012-11-08 23:35:00
6:55 PM,44.1,32.0,63,30.11,10.0,South,4.6,-,N/A,,Overcast,190,2012-11-08 23:55:00
7:15 PM,43.5,32.2,64,30.10,10.0,South,4.6,-,N/A,,Overcast,180,2012-11-09 00:15:00
7:35 PM,43.5,32.4,65,30.10,10.0,SSW,6.9,-,N/A,,Overcast,210,2012-11-09 00:35:00
7:55 PM,43.7,32.5,65,30.10,10.0,SSW,5.8,-,N/A,,Overcast,210,2012-11-09 00:55:00
8:15 PM,43.7,32.9,66,30.10,10.0,SW,5.8,-,N/A,,Overcast,220,2012-11-09 01:15:00
8:35 PM,43.7,33.1,66,30.10,10.0,SW,4.6,-,N/A,,Overcast,220,2012-11-09 01:35:00
8:54 PM,43.7,33.4,67,30.10,7.0,SSW,5.8,-,N/A,,Overcast,210,2012-11-09 01:54:00
9:15 PM,43.2,33.8,70,30.10,7.0,SW,5.8,-,N/A,,Overcast,220,2012-11-09 02:15:00
9:35 PM,41.9,33.3,71,30.10,7.0,SSW,3.5,-,N/A,,Mostly Cloudy,200,2012-11-09 02:35:00
9:54 PM,41.2,33.8,75,30.10,7.0,SSW,4.6,-,N/A,,Clear,200,2012-11-09 02:54:00
10:15 PM,40.5,34.0,78,30.09,7.0,Calm,Calm,-,N/A,,Clear,0,2012-11-09 03:15:00
10:35 PM,41.0,34.7,78,30.09,5.0,SSW,3.5,-,N/A,,Haze,200,2012-11-09 03:35:00
10:54 PM,40.6,35.1,80,30.09,5.0,SSW,4.6,-,N/A,,Haze,210,2012-11-09 03:54:00
11:15 PM,41.0,35.6,81,30.09,5.0,SW,4.6,-,N/A,,Haze,220,2012-11-09 04:15:00
11:35 PM,40.1,34.9,82,30.09,5.0,SW,4.6,-,N/A,,Haze,220,2012-11-09 04:35:00
11:54 PM,40.3,35.1,82,30.09,5.0,SSW,3.5,-,N/A,,Haze,210,2012-11-09 04:54:00